Theta_e
348 349 348 348 347 345 344 344 344 343 344 344 344 342 340 339 338 340 343 343 340 340 341 341 342 339 334 332 331 332 331 331 332 335 336 338 339 341 342 342 342 341 340 340 340 340 340 340 340 339 339 339 338 340 343 344 344 344 345 345 345 344 343 341 341 342 343 345 345 346 346 346 346 347 345 344 343 342 342 343 345 345 344 342 342
348 348 348 348 346 345 344 344 345 345 345 344 344 343 342 342 342 343 345 344 342 342 343 342 342 338 334 333 333 333 335 337 340 341 341 341 342 344 344 343 343 341 339 340 341 341 341 342 342 341 341 340 339 341 343 343 344 344 344 344 345 344 343 343 342 343 344 344 345 346 345 345 346 346 345 344 343 342 342 345 346 345 343 342 343
348 349 348 347 346 345 345 345 345 346 346 345 346 347 347 346 345 345 344 343 344 343 343 341 339 336 333 333 335 339 341 343 344 344 344 344 344 345 345 344 343 341 340 339 340 340 341 342 342 342 341 341 341 343 343 343 344 344 344 345 345 343 343 343 343 344 344 345 345 346 345 345 346 346 346 345 343 343 343 344 345 345 343 343 343
348 348 347 346 346 346 345 345 344 345 345 346 346 346 344 344 342 340 340 340 340 340 339 337 335 335 335 337 340 343 344 344 344 344 345 345 345 345 346 345 344 342 339 338 339 341 342 342 342 341 341 342 342 344 343 342 345 345 345 345 344 343 342 342 343 344 344 345 346 346 346 346 346 346 346 344 344 344 344 344 344 344 343 343 344
349 348 346 345 344 344 343 342 340 338 337 337 337 336 335 334 331 332 333 333 332 334 335 334 335 337 338 340 342 344 344 345 345 344 345 344 344 344 345 344 345 342 338 337 340 342 342 342 342 342 341 342 342 343 343 343 344 344 345 344 343 342 341 341 342 343 343 345 346 346 346 346 346 345 345 344 343 343 344 344 344 343 342 342 342
348 347 346 346 343 340 339 336 332 329 328 327 327 327 327 327 326 327 328 327 328 332 334 336 338 338 339 341 342 344 344 344 344 344 344 344 344 344 344 344 344 342 338 339 342 343 343 343 343 343 343 343 343 343 343 343 343 343 343 342 342 341 341 342 342 342 343 345 347 347 345 344 345 345 345 344 343 341 343 344 344 343 342 341 341
348 347 346 345 342 338 334 332 330 330 329 328 329 329 331 331 332 332 332 333 333 336 338 340 340 340 340 341 341 342 342 343 344 344 343 344 344 343 344 343 343 342 340 341 343 343 343 344 344 344 344 343 343 343 342 343 343 342 341 341 340 340 340 341 340 341 342 347 350 347 345 346 345 345 344 343 343 342 341 343 343 342 340 339 339
347 347 346 345 341 336 334 334 335 336 336 336 336 337 339 338 338 340 340 340 340 341 341 342 341 341 341 341 341 341 341 343 344 344 343 344 345 344 344 344 343 342 341 341 343 342 343 344 344 343 343 343 343 342 342 342 342 341 339 339 338 337 337 337 339 341 343 347 348 346 345 345 344 344 344 343 342 343 341 341 342 339 338 337 337
348 347 346 343 339 336 337 339 339 341 341 341 342 342 342 341 341 342 343 343 343 343 342 342 342 341 341 341 340 341 341 342 344 343 343 345 345 344 344 344 343 342 341 341 342 342 342 342 342 342 342 342 341 342 342 341 341 340 338 337 336 334 336 338 340 343 346 346 343 342 344 344 345 345 344 344 343 343 341 340 341 338 336 337 338
347 347 347 342 337 338 341 343 342 343 344 344 344 345 343 342 343 342 344 343 343 343 342 342 341 341 341 340 340 340 341 342 343 343 344 345 344 344 344 343 343 342 341 341 343 342 342 342 342 342 342 341 341 341 341 341 342 341 339 337 335 334 336 340 342 345 348 346 341 342 344 344 345 345 344 344 344 343 341 340 340 337 336 337 337
347 348 347 340 337 340 343 343 343 344 345 345 345 345 344 343 343 342 343 343 342 342 342 342 341 340 340 340 340 340 342 343 344 344 344 344 344 344 344 343 343 342 340 341 343 342 342 342 342 342 342 342 342 342 342 342 343 341 338 338 337 336 338 343 345 347 348 345 342 343 344 345 345 344 343 343 342 341 340 340 338 337 336 336 335
348 348 345 338 338 342 343 344 343 344 345 344 344 345 343 343 343 343 342 342 343 343 341 342 341 341 341 341 342 343 344 345 345 344 344 344 344 344 344 343 343 343 339 340 343 343 342 342 343 343 343 342 341 341 341 342 341 339 337 337 338 337 339 343 347 348 348 344 342 343 344 344 344 343 343 342 341 340 340 340 338 337 338 337 335
348 347 342 337 341 342 342 343 343 344 344 344 344 345 344 343 342 342 342 342 343 343 342 342 342 342 343 343 344 345 345 345 345 344 344 344 343 343 344 343 343 343 340 339 342 342 341 342 343 343 342 341 341 341 341 340 340 338 336 337 338 339 339 342 345 347 348 345 341 342 343 343 343 342 342 342 340 340 341 340 338 338 338 337 336
348 346 341 339 343 342 342 342 342 343 343 344 344 345 345 343 343 343 342 343 343 343 342 343 343 344 344 344 344 344 344 345 345 344 344 344 344 343 343 343 343 343 341 338 339 341 341 342 342 342 342 341 341 342 341 340 340 339 337 337 338 340 341 342 345 348 347 345 342 342 342 342 342 342 341 341 340 341 341 339 338 338 338 337 335
347 347 343 342 343 342 342 342 342 343 343 343 343 343 344 343 343 344 343 343 343 343 343 343 344 343 343 344 344 344 344 344 343 343 344 345 344 344 343 342 343 342 341 339 339 340 342 342 341 342 341 341 341 342 341 341 340 339 337 336 338 340 343 345 347 348 347 345 343 343 343 341 341 342 341 342 342 342 341 340 337 338 338 337 335
347 347 345 344 343 343 342 342 343 343 343 342 342 342 342 342 343 343 344 344 343 343 342 343 343 343 343 343 343 344 343 342 342 342 343 344 344 344 343 343 343 342 341 340 339 341 342 341 340 341 340 340 341 342 341 341 340 339 337 336 337 339 342 347 349 348 348 346 344 344 344 343 342 342 342 342 341 340 340 341 339 338 337 337 336
346 347 346 344 342 343 343 343 343 343 343 341 341 341 341 342 342 342 343 343 344 343 343 343 342 343 343 343 343 342 342 341 341 342 342 343 343 344 343 343 342 342 342 341 340 340 340 340 339 338 339 340 339 340 340 340 340 340 339 336 336 338 340 345 347 344 343 344 344 345 344 343 342 342 342 341 340 340 340 341 340 339 338 338 338
346 346 346 343 342 344 344 344 343 343 342 341 341 342 341 342 342 343 342 343 343 342 342 342 342 342 342 343 343 342 341 340 340 340 341 341 342 343 343 343 343 342 341 341 341 340 340 339 339 339 339 339 339 340 340 341 340 340 341 338 337 339 341 344 345 341 340 343 343 342 341 340 341 341 341 341 341 340 340 339 339 340 339 340 340
346 346 345 343 345 346 345 343 343 342 342 343 343 343 342 343 343 343 343 343 342 342 342 342 342 342 342 342 342 341 340 338 338 338 339 339 340 341 342 342 342 342 342 342 341 341 341 341 342 342 341 341 341 341 341 341 341 341 340 339 338 341 343 344 344 342 342 344 342 338 338 338 339 340 340 340 340 340 340 339 339 339 339 340 340
346 345 345 345 345 347 346 344 343 342 343 344 344 344 343 343 343 343 343 344 343 343 342 342 341 341 341 342 343 342 340 339 338 338 338 338 338 338 340 341 342 342 342 343 343 342 342 343 343 342 342 342 341 341 341 341 341 340 339 338 340 342 344 344 343 343 343 343 339 336 336 337 339 339 339 338 338 339 340 340 339 340 339 339 339
345 344 345 346 345 346 346 344 343 344 345 345 344 345 344 343 343 342 343 344 344 343 341 341 341 340 341 342 343 343 344 342 341 341 340 338 338 338 338 339 340 341 342 343 344 343 343 343 342 342 342 342 342 341 341 341 340 339 338 339 342 342 343 344 345 344 344 342 338 335 334 336 338 339 339 338 338 338 339 339 339 340 340 340 340
344 344 343 345 344 344 345 345 345 345 345 345 346 344 344 344 343 342 342 342 343 342 342 342 340 340 341 342 343 344 344 343 342 343 342 341 342 341 340 338 338 339 340 342 343 343 343 342 341 341 341 341 343 344 342 340 339 338 337 339 342 341 339 342 344 344 344 343 337 334 334 336 337 337 336 336 336 336 335 335 338 339 339 340 340
345 343 342 344 342 343 346 345 345 345 345 346 345 344 344 344 342 342 342 342 342 342 343 342 339 339 340 341 343 344 343 342 342 342 342 342 342 343 342 341 338 337 337 340 341 342 341 341 340 340 341 343 347 347 345 343 341 340 340 342 341 337 337 341 345 344 343 344 338 334 335 336 337 336 336 334 332 331 329 329 333 337 338 339 340
345 344 343 343 342 342 345 344 343 344 346 346 345 344 344 343 342 343 343 343 343 343 343 341 339 339 338 340 342 342 342 342 342 343 344 345 344 342 343 343 341 340 340 342 342 341 341 341 340 342 343 346 349 349 347 347 346 345 346 346 341 337 340 342 346 346 343 343 338 333 334 336 337 337 336 334 331 330 329 327 329 334 337 338 338
346 346 344 343 341 341 343 342 340 343 345 346 346 344 343 343 343 343 343 343 342 342 341 340 339 337 339 341 340 340 342 343 345 348 349 350 349 347 346 345 343 342 343 346 345 343 345 343 342 344 345 346 347 348 348 348 347 347 347 345 343 343 344 343 343 344 344 342 337 334 334 335 336 337 337 336 335 334 332 330 328 331 335 337 336
347 347 345 341 340 340 342 343 339 342 344 347 348 344 343 344 341 342 342 341 341 339 339 339 337 337 341 341 340 341 344 344 345 348 349 351 351 351 349 347 345 345 346 347 344 344 347 345 345 345 345 345 344 344 345 347 348 347 345 343 344 345 347 345 342 341 342 341 338 336 335 336 336 336 337 337 336 336 335 334 332 330 332 335 336
348 348 345 340 339 341 342 343 341 341 344 346 347 344 344 344 339 339 340 340 339 339 340 337 335 336 337 339 343 344 346 345 344 345 348 351 351 350 350 349 349 348 348 347 344 346 347 345 345 345 345 346 344 342 342 344 345 346 344 341 343 345 345 346 342 340 341 340 338 338 337 337 338 338 338 337 337 336 337 336 336 333 331 331 333
349 348 346 340 338 341 340 342 343 340 343 344 344 344 344 343 337 337 340 339 338 340 342 337 333 334 333 337 344 347 346 346 345 346 348 350 349 349 349 350 350 347 347 348 347 347 347 346 345 344 346 347 346 345 345 345 344 346 345 341 342 344 344 345 341 340 342 341 339 338 337 339 340 340 339 338 338 337 338 337 337 337 335 333 331
350 348 348 341 338 341 338 340 343 340 342 344 344 344 343 342 337 337 339 336 338 342 340 336 333 333 333 335 343 348 348 346 347 349 348 347 347 348 350 350 351 348 348 349 348 347 348 347 346 346 347 348 347 346 346 346 346 346 345 344 344 344 343 344 341 340 341 340 340 339 337 339 340 340 340 340 339 338 339 339 338 338 337 337 335
350 349 349 344 340 341 339 340 342 341 342 343 344 343 341 340 335 336 338 334 337 339 335 338 337 336 336 337 340 346 349 349 347 347 348 346 347 349 351 351 350 350 350 350 348 349 349 347 348 348 348 348 348 346 346 346 345 345 345 345 346 345 344 344 343 342 341 340 341 338 338 339 339 340 339 339 339 339 340 340 340 340 339 339 338
350 349 349 346 340 339 340 339 341 339 340 342 343 341 337 336 333 334 335 332 336 334 335 342 343 342 340 339 340 341 348 352 347 346 349 349 348 350 350 351 351 351 350 350 349 349 350 348 348 348 347 348 348 346 346 346 345 344 344 343 344 346 346 346 345 345 343 342 340 338 339 339 339 339 339 339 339 340 340 340 341 341 341 340 339
349 349 349 347 341 340 340 338 338 335 335 340 341 339 337 335 333 334 333 332 334 332 334 341 344 344 341 340 342 341 346 349 345 347 351 351 351 351 350 351 350 350 351 350 349 349 350 348 344 344 343 344 347 346 345 345 344 343 342 342 343 344 346 346 346 345 344 342 340 339 340 339 339 338 338 339 340 340 340 340 341 341 342 341 340
349 348 349 347 342 342 340 335 337 332 331 341 341 340 342 338 335 336 335 332 331 332 336 340 342 341 339 341 343 343 344 345 344 347 352 352 351 351 351 351 350 351 350 347 348 349 350 348 345 345 345 344 347 347 346 345 344 343 341 341 341 343 345 346 346 346 345 344 342 341 341 340 339 339 338 339 340 341 341 341 342 341 341 341 341
350 349 349 348 343 342 339 334 334 328 329 340 342 342 344 342 337 338 339 334 333 334 337 340 340 340 340 340 343 344 344 345 345 346 351 352 351 351 350 351 351 350 350 347 349 351 349 350 348 347 347 347 348 349 349 346 344 343 342 342 342 342 345 346 346 346 345 344 343 342 342 341 340 340 340 339 339 339 340 341 342 342 342 341 341
350 349 349 348 343 340 337 333 329 325 327 335 339 342 344 341 336 338 338 335 335 338 341 343 341 341 342 341 342 345 344 345 345 345 350 353 351 351 351 351 349 349 351 349 350 352 350 350 350 348 349 348 348 349 349 348 344 344 343 342 343 342 344 346 345 346 345 344 344 342 341 342 342 342 342 341 340 339 338 340 341 341 342 341 341
350 350 350 348 342 334 332 332 327 325 327 328 331 338 341 339 334 334 335 335 338 340 344 347 345 344 346 344 343 344 344 345 346 346 350 354 352 351 351 350 347 350 350 347 350 352 351 351 350 349 349 348 348 349 350 349 345 343 343 342 342 342 344 346 345 345 345 344 343 342 339 339 339 339 340 343 343 341 338 338 340 340 340 341 340
350 350 350 347 340 330 328 333 329 324 327 326 327 331 334 334 332 331 332 334 337 340 343 346 347 346 347 347 345 345 345 345 347 347 349 354 353 352 352 348 347 350 347 347 352 352 351 351 350 350 350 350 350 349 350 349 345 343 341 340 342 341 343 345 345 345 344 342 341 341 340 337 335 336 339 343 343 342 339 335 336 337 337 339 339
351 351 350 343 336 329 326 331 329 325 326 326 327 327 328 330 330 330 332 332 335 341 343 343 345 347 347 346 345 346 346 345 348 347 349 352 353 353 353 348 346 347 346 350 353 351 352 353 352 350 349 350 351 351 351 349 345 343 341 341 341 340 342 344 343 344 343 342 341 341 341 338 337 337 337 340 341 342 341 338 337 338 336 335 337
352 351 350 342 335 331 325 327 328 325 326 326 326 327 326 327 329 330 332 333 335 341 344 343 343 346 347 345 344 346 347 346 348 347 347 351 353 354 351 347 346 345 347 352 353 351 350 349 352 349 345 347 348 348 350 350 347 343 342 342 338 336 340 344 343 344 344 342 341 341 340 339 339 337 334 336 339 339 339 339 341 341 339 333 332
351 352 350 343 336 331 325 325 326 325 326 326 326 326 326 327 327 329 330 332 334 337 340 342 343 345 347 343 343 346 346 346 347 347 346 348 352 353 349 347 348 346 346 351 354 353 348 345 348 347 346 346 344 345 346 347 347 344 344 343 339 338 339 343 345 344 344 343 342 342 341 341 340 338 336 337 339 338 334 332 335 337 338 336 333
351 351 348 343 337 331 325 325 326 325 326 326 326 326 326 326 326 327 330 331 332 333 335 339 342 345 343 341 342 344 345 345 345 346 345 344 346 347 345 346 350 349 346 350 352 350 346 345 348 350 350 346 343 345 344 347 347 345 344 342 341 342 340 342 344 343 343 343 342 342 342 342 341 340 338 335 335 337 333 329 330 330 332 336 337
352 351 348 345 339 334 329 325 325 325 326 325 326 326 325 326 325 326 332 336 332 331 335 338 341 344 341 337 340 341 343 344 343 343 343 342 341 341 342 342 346 348 346 348 349 346 345 346 350 353 352 346 345 346 344 346 347 344 342 342 341 342 341 341 343 342 342 342 342 342 341 341 342 342 341 337 335 337 337 334 333 330 328 329 332
352 352 349 345 340 337 334 329 325 325 325 326 326 326 326 325 326 326 331 339 338 334 338 340 339 343 342 338 338 339 341 342 341 342 341 341 340 340 341 340 342 344 344 347 348 347 347 347 349 353 352 349 348 348 346 346 346 343 342 343 342 341 341 341 341 341 341 341 341 341 341 341 342 343 343 342 341 342 340 337 335 333 329 327 328
353 352 348 344 339 338 337 333 329 325 325 326 325 326 326 325 326 326 327 337 341 335 333 335 334 338 342 342 339 338 342 341 340 342 341 341 340 340 341 341 341 341 341 344 346 349 350 350 351 351 351 351 350 349 349 348 346 344 343 343 341 340 341 341 340 341 340 340 341 340 341 342 342 343 344 344 343 342 341 337 336 335 331 328 328
354 352 348 344 341 339 339 337 333 328 325 325 326 325 325 325 325 326 325 330 334 329 326 328 329 332 339 343 342 339 342 341 340 341 341 342 341 340 341 341 341 342 341 342 345 349 352 353 352 350 350 351 350 351 351 350 347 343 343 343 341 341 341 340 339 340 340 339 340 340 341 341 342 343 344 344 343 342 343 340 337 336 333 329 328
353 352 349 346 342 340 339 340 337 333 328 325 325 325 325 326 325 326 326 325 326 325 325 326 328 330 335 344 346 340 339 340 339 340 340 341 342 341 341 341 341 341 341 341 344 346 348 352 352 351 352 351 349 350 351 351 348 343 342 343 342 342 342 340 339 340 341 339 339 340 341 341 342 342 344 344 344 343 344 343 340 338 336 331 329
354 353 351 349 345 341 340 340 340 337 332 328 325 325 325 325 325 326 326 326 325 325 326 326 328 332 334 343 348 343 337 338 339 339 339 340 342 341 341 342 342 341 340 339 341 346 351 354 352 350 351 350 347 349 352 351 348 345 344 344 343 342 342 341 341 341 341 340 340 340 340 341 341 341 342 343 344 344 344 344 342 342 340 335 332
354 353 352 352 349 344 342 342 341 339 337 333 328 326 325 325 326 325 325 326 325 324 325 325 328 331 331 337 344 342 338 337 337 336 337 339 341 342 341 342 342 341 340 338 339 346 351 351 348 346 347 347 346 349 351 351 350 348 348 345 344 344 343 342 342 342 341 341 341 340 340 340 339 340 342 342 342 343 344 343 342 342 342 339 335
354 355 354 353 350 346 343 343 342 341 339 337 333 329 327 325 325 326 325 325 325 325 326 325 326 329 330 331 334 336 336 335 334 334 336 338 339 342 342 341 341 341 340 339 338 341 345 344 345 345 346 347 349 349 348 350 351 351 350 347 346 345 343 343 342 342 343 342 342 341 340 340 340 340 341 341 341 342 343 343 341 341 343 342 338
355 355 355 354 351 346 343 344 343 341 342 340 338 334 330 329 326 325 325 324 325 325 326 326 326 328 330 331 330 330 333 335 336 335 335 336 339 341 343 341 340 341 340 340 339 338 339 341 344 346 347 348 349 349 349 350 351 352 352 349 346 347 345 344 343 342 343 343 343 342 341 340 340 341 342 341 341 341 342 343 342 342 343 344 342
355 356 356 356 352 347 344 345 344 344 344 343 341 338 334 332 329 328 326 326 326 325 325 326 325 327 329 331 332 330 332 335 338 339 336 336 337 340 343 341 340 340 340 340 338 339 342 342 342 343 346 346 347 350 351 351 350 350 350 349 348 348 347 345 345 344 344 344 344 342 341 342 341 341 343 340 338 340 341 341 343 343 344 344 343
Wind_Speed
18 18 17 18 19 19 19 20 19 18 18 19 19 20 19 20 19 19 19 17 17 16 15 14 14 13 14 14 13 12 11 10 10 9 10 10 11 10 10 10 10 10 11 11 11 10 10 9 9 9 9 8 9 9 9 8 9 9 10 10 10 10 10 11 11 11 10 10 10 9 10 11 11 12 12 12 13 13 13 12 12 11 11 12 13
20 19 17 17 19 19 18 19 19 17 16 17 18 19 20 19 18 18 18 17 16 15 14 14 14 13 14 13 12 11 11 11 11 11 11 11 10 10 11 11 11 11 11 11 11 9 9 9 9 10 10 10 10 11 10 9 9 10 10 10 10 10 10 10 10 10 10 9 9 9 10 10 10 11 12 12 13 13 12 12 12 11 11 13 13
20 19 18 18 19 19 17 17 17 16 14 15 17 17 17 17 16 16 16 15 14 14 14 13 13 12 13 12 12 12 11 11 11 11 11 11 10 11 11 11 11 11 11 10 9 8 8 8 9 10 11 11 10 12 12 10 10 10 10 10 9 9 9 9 9 9 9 8 8 9 9 9 10 11 12 12 12 11 11 12 12 12 13 15 14
20 19 18 18 19 19 18 17 17 16 15 15 16 15 15 15 14 14 14 14 13 13 12 12 11 11 12 12 12 12 12 11 11 11 11 10 10 10 11 11 11 11 11 9 8 8 8 8 9 10 11 11 11 12 12 11 11 10 10 9 8 8 8 8 8 8 8 7 8 10 9 9 10 11 11 11 11 10 10 11 13 14 15 16 16
20 19 18 17 18 18 18 18 17 16 15 15 15 14 13 13 12 12 13 13 12 12 11 11 11 10 11 12 12 12 11 11 11 11 10 9 9 9 10 11 11 11 10 8 9 9 9 10 11 11 12 12 12 13 12 11 11 9 9 8 7 7 7 7 7 7 7 6 9 10 8 8 9 10 10 10 10 10 10 11 13 15 15 15 15
21 19 18 17 16 16 17 16 15 14 13 13 12 12 11 10 10 10 10 10 10 11 11 11 11 10 11 11 11 11 11 11 10 10 9 9 9 9 10 10 11 11 10 9 9 10 10 11 12 12 12 12 12 12 12 12 11 9 8 7 7 7 7 7 7 7 7 7 10 9 8 8 8 9 10 11 11 11 10 10 13 14 14 14 13
21 20 19 18 16 16 16 15 14 13 12 12 12 11 11 10 10 9 9 10 11 12 11 11 11 10 11 11 11 11 11 10 10 9 8 8 8 9 9 10 11 12 11 9 10 11 11 12 13 13 13 13 12 12 12 12 11 9 9 8 7 7 8 8 8 7 7 9 9 8 9 8 8 9 10 11 11 11 11 9 12 13 12 13 12
22 20 19 19 17 17 16 15 14 13 13 14 14 13 12 11 11 11 11 12 12 12 12 12 12 12 12 11 11 11 10 9 9 8 8 8 8 9 9 10 11 12 11 10 11 11 11 12 12 12 12 12 12 12 12 12 11 10 10 9 8 8 8 9 9 7 8 9 8 8 9 8 9 10 10 11 11 12 11 10 11 10 11 12 13
22 20 20 19 18 17 17 16 16 15 15 16 16 15 14 13 13 13 13 13 13 13 12 12 12 12 11 10 10 10 10 9 9 8 8 8 8 9 9 10 11 12 11 11 11 11 11 11 11 12 12 12 12 12 12 12 12 11 11 11 10 9 9 9 9 9 10 9 8 9 9 8 9 10 11 12 13 12 10 11 10 8 10 13 13
22 21 20 19 19 18 17 17 16 16 16 17 16 15 14 14 13 13 13 13 13 12 12 11 12 12 11 10 10 11 10 9 9 9 9 8 8 9 10 10 11 11 11 11 12 12 12 12 11 11 12 12 12 13 12 12 12 12 11 12 12 10 10 9 10 11 11 10 8 8 9 10 10 11 12 12 13 11 10 12 9 8 11 12 13
22 21 20 20 19 18 17 17 17 16 17 16 15 14 13 14 13 13 14 13 13 12 11 11 11 12 11 10 10 11 11 10 10 9 9 9 8 9 10 11 11 11 11 11 12 13 13 12 12 12 12 12 12 12 12 12 12 12 11 12 12 11 10 11 13 12 12 11 10 10 9 10 11 10 11 11 12 11 11 12 10 10 12 13 14
22 20 20 20 19 18 17 17 17 16 16 15 14 14 13 13 13 13 13 13 12 11 11 12 12 12 12 11 11 11 11 11 11 10 10 9 9 9 10 11 11 11 11 11 12 13 12 12 12 11 12 12 12 13 12 13 13 12 11 11 12 11 11 12 13 13 13 13 12 11 10 10 10 10 11 12 12 11 12 12 11 12 13 14 14
21 20 21 21 19 19 18 17 16 15 15 14 14 14 13 12 12 12 12 13 12 12 12 12 12 12 12 11 11 11 11 11 11 10 10 10 9 9 9 10 11 11 11 11 12 12 11 11 12 11 12 12 13 13 13 13 13 13 12 11 12 12 11 12 12 12 12 13 13 11 11 11 11 11 12 12 11 11 12 12 12 13 13 14 14
21 20 21 20 18 18 18 17 16 15 14 14 14 13 13 12 11 11 12 13 12 12 12 12 12 12 12 12 12 11 11 11 11 11 11 11 10 9 10 10 11 12 12 12 12 11 11 11 12 12 13 13 12 12 13 13 13 13 12 12 12 12 12 12 11 11 12 13 12 10 12 12 11 11 12 11 11 11 12 12 13 13 13 14 14
20 20 21 19 18 18 18 17 16 15 14 14 13 13 12 12 11 11 12 12 12 13 13 13 13 12 13 12 12 12 11 11 11 11 11 11 11 10 10 11 11 12 12 12 12 10 10 11 12 13 13 12 11 11 12 13 13 12 12 13 12 12 12 12 10 11 11 12 12 12 13 11 10 11 11 11 11 12 12 12 13 13 13 13 13
20 20 20 19 18 18 17 17 16 15 14 13 13 13 13 12 12 11 11 12 12 13 13 13 13 13 13 12 12 12 12 12 12 12 11 12 12 12 11 11 11 12 12 13 12 10 10 11 12 13 13 12 11 11 12 13 12 12 12 12 13 12 13 12 9 10 10 10 12 12 12 11 11 11 11 11 10 11 11 12 13 13 13 13 13
20 20 19 19 18 17 17 16 15 14 13 13 13 13 13 13 13 12 11 12 12 13 13 14 14 13 13 13 13 12 12 12 13 12 13 13 13 12 12 11 12 12 12 13 12 10 9 11 12 13 13 12 12 11 12 12 11 11 11 11 12 12 12 12 9 10 11 11 12 11 10 11 10 10 11 10 10 11 11 11 12 12 12 12 12
20 20 19 19 18 17 17 16 15 14 13 13 12 13 13 14 13 12 12 12 13 13 14 14 14 14 14 14 14 13 13 13 13 13 14 14 13 13 12 12 12 12 12 13 13 11 10 10 11 11 12 12 12 12 12 11 10 11 10 10 11 11 12 12 10 10 11 11 12 10 10 10 10 11 11 10 10 11 10 10 10 10 10 10 11
20 19 19 19 18 16 16 16 16 15 14 13 12 13 13 14 13 13 13 13 14 14 14 14 14 14 14 14 14 14 14 14 14 14 14 14 13 13 12 13 12 12 12 12 13 12 11 10 11 12 12 12 12 11 11 11 10 10 10 10 10 10 10 11 10 10 10 10 10 9 9 10 11 11 11 11 10 10 10 9 9 8 8 8 9
20 20 20 19 18 17 16 16 16 15 14 13 13 13 13 14 14 14 14 14 14 14 14 14 15 15 15 15 15 14 14 14 13 13 13 13 13 12 12 13 13 12 12 12 12 13 12 11 11 12 12 12 12 12 11 11 11 11 11 10 10 9 9 9 9 9 9 9 9 8 8 10 12 11 11 11 10 10 9 9 9 7 7 7 7
20 20 20 20 19 17 16 16 16 15 15 14 13 13 13 14 13 14 14 14 14 14 15 14 15 15 14 14 14 14 13 13 13 12 12 12 12 12 12 12 12 12 12 12 12 12 12 12 12 12 12 12 12 12 11 11 11 11 10 10 9 8 7 7 8 8 8 8 8 7 8 9 11 10 10 10 10 9 8 8 8 7 7 6 6
21 21 20 20 20 18 16 16 16 15 15 15 14 13 13 14 13 14 14 14 15 15 14 14 14 14 13 13 13 13 12 12 12 11 11 10 11 12 12 11 11 11 12 12 11 11 11 11 12 12 12 12 12 12 11 11 11 11 10 10 9 7 6 7 8 7 7 7 7 7 8 9 10 10 9 9 8 8 7 7 7 7 6 7 6
21 21 20 20 20 18 16 16 16 16 16 15 14 14 14 14 14 14 14 14 15 14 14 13 14 13 13 12 12 11 11 11 11 10 10 10 11 12 12 12 12 12 12 12 12 11 11 11 12 12 13 14 12 11 10 10 11 11 10 9 7 6 7 8 7 7 7 6 6 7 8 9 9 10 9 9 9 8 8 7 7 6 6 7 5
21 21 20 21 21 19 17 16 16 16 16 15 15 14 15 15 14 14 15 15 15 14 13 13 13 13 12 12 11 11 11 10 11 10 9 8 9 11 10 11 12 12 12 11 12 12 12 11 12 12 12 12 11 9 9 9 9 9 8 7 6 7 7 7 7 6 6 6 5 6 7 8 9 9 9 9 10 10 9 8 7 6 6 6 6
21 20 20 21 21 20 18 17 17 17 16 15 15 15 16 16 15 15 15 15 14 14 13 13 13 12 12 11 10 10 10 9 9 9 8 8 8 9 8 9 10 11 11 10 10 11 11 11 11 11 11 11 10 9 9 8 8 8 7 7 7 8 7 6 6 6 5 4 4 5 7 7 8 8 8 9 9 10 10 9 8 6 6 6 6
22 20 22 22 22 21 19 17 18 17 16 16 15 16 17 16 15 15 15 15 14 13 13 12 12 12 11 10 10 9 9 8 8 8 8 8 8 8 7 9 9 9 10 9 10 11 10 9 10 10 9 9 10 10 10 8 8 7 8 8 8 7 6 6 6 6 5 4 4 5 6 7 7 7 7 8 8 9 9 9 8 7 6 6 6
22 21 22 23 23 22 19 18 18 18 17 16 15 17 17 16 17 16 15 15 14 13 12 12 12 11 11 11 9 7 8 7 8 9 8 8 7 8 8 8 8 8 9 8 9 10 9 9 9 9 9 8 9 10 10 10 9 8 8 9 8 7 6 6 5 6 5 3 4 4 5 6 6 6 6 7 7 7 8 8 8 7 7 6 6
22 22 22 23 24 22 20 19 18 18 17 16 16 17 17 17 18 17 15 15 14 13 11 11 11 11 11 11 10 7 7 7 7 7 7 7 7 8 8 8 7 7 9 8 8 8 8 8 8 8 8 7 7 8 8 9 9 9 7 8 8 7 7 6 5 6 5 3 3 3 4 4 5 5 5 5 5 6 6 6 6 7 7 7 6
22 23 22 23 24 22 22 20 18 19 18 17 16 17 17 17 18 17 15 15 14 12 11 11 10 10 9 11 11 8 6 6 7 6 6 7 7 8 7 7 6 6 7 6 7 7 7 7 7 6 7 6 6 7 7 7 7 7 7 7 7 7 7 6 6 6 4 3 3 3 3 3 3 3 3 4 4 4 4 5 5 5 6 6 6
22 23 21 22 24 23 23 21 19 19 19 18 17 17 18 18 19 17 15 16 14 12 11 10 9 9 8 9 10 9 8 6 6 6 6 6 6 7 6 6 6 6 6 5 5 6 5 5 6 5 5 5 4 5 6 6 6 6 6 6 5 5 6 6 6 6 5 4 3 2 3 3 3 2 2 3 3 3 3 3 3 4 4 5 5
22 22 21 22 24 24 24 22 20 20 20 19 18 18 19 19 20 17 17 18 14 13 12 10 8 8 8 9 8 10 9 6 6 7 6 5 5 5 5 5 5 5 5 4 4 5 5 4 5 4 4 4 3 4 4 5 5 5 6 5 4 4 4 4 5 5 5 4 3 2 2 2 2 2 1 2 2 2 2 2 2 1 2 3 3
22 23 21 22 25 24 23 22 21 21 21 20 19 19 19 20 20 18 18 19 16 15 14 11 10 9 9 8 8 9 9 7 8 7 6 5 5 4 4 4 4 4 4 4 4 5 4 3 4 4 4 3 2 3 3 3 4 4 5 5 4 3 3 4 4 5 4 4 4 3 1 2 2 2 1 2 1 1 0 1 1 1 1 2 1
23 23 22 22 24 23 23 23 21 22 23 20 19 19 17 18 20 18 18 19 18 16 14 12 12 10 9 8 8 9 8 8 8 7 6 4 4 4 3 3 4 4 3 4 4 4 3 2 4 4 4 3 1 1 1 2 3 3 4 4 4 3 3 4 4 4 4 4 4 3 1 1 1 1 1 1 1 0 0 0 1 2 1 0 0
23 23 22 22 24 24 24 24 22 22 22 20 18 17 15 16 19 17 16 18 17 16 14 13 12 11 10 9 8 8 8 8 8 7 6 4 3 3 3 3 3 3 3 3 4 3 2 2 3 4 6 4 0 0 0 1 2 2 3 4 4 3 3 3 3 4 4 4 4 3 2 1 1 1 0 1 1 1 1 1 1 2 2 1 0
23 24 24 23 26 27 26 25 24 23 23 22 19 17 16 17 19 17 16 17 16 15 13 11 11 11 9 9 9 8 8 8 7 7 6 4 3 3 3 3 3 3 3 3 4 3 2 3 3 4 6 5 1 1 1 2 2 1 2 4 3 3 3 3 3 4 4 4 4 3 3 2 1 2 1 1 0 0 1 2 1 1 1 1 1
25 24 24 24 27 30 29 26 26 24 23 24 22 19 17 17 19 18 17 16 16 15 13 10 9 10 9 8 9 9 9 8 8 7 6 4 3 3 2 3 3 3 2 3 4 2 2 3 3 3 3 4 3 1 1 1 2 1 2 3 3 3 3 2 3 4 3 4 4 4 4 4 2 1 1 1 1 1 2 3 2 1 2 2 1
26 25 26 27 28 31 31 27 26 26 24 24 24 21 19 18 19 19 18 17 16 14 13 12 10 10 9 9 9 9 9 9 8 7 6 4 3 3 2 2 2 3 2 4 3 2 2 2 2 3 2 3 3 1 1 1 3 2 2 2 2 2 2 2 3 4 4 5 6 4 4 4 3 2 1 0 1 2 2 2 1 1 2 2 2
26 26 27 29 30 31 32 29 27 27 25 25 24 23 21 20 20 19 19 18 16 13 12 13 11 10 10 10 11 10 9 9 8 7 7 5 3 3 3 2 3 3 2 3 2 2 2 1 1 2 2 1 1 1 0 1 3 3 2 1 2 2 2 3 3 4 4 5 6 5 4 4 4 3 1 1 1 1 1 1 1 2 2 3 3
27 27 27 30 30 31 33 32 30 29 27 26 25 24 22 21 20 20 19 18 18 15 13 13 13 11 10 11 11 10 10 9 8 7 7 5 3 3 3 3 3 2 3 3 2 1 1 1 1 2 2 1 1 0 1 2 3 3 2 1 2 2 3 3 3 4 4 4 5 5 4 5 5 4 3 2 1 1 1 1 1 1 2 2 3
28 28 29 31 31 31 34 34 32 31 30 28 27 25 24 22 21 20 19 19 18 17 16 14 13 11 11 12 11 11 10 9 8 8 7 6 5 4 4 3 3 2 2 3 2 0 1 1 1 2 3 2 2 1 1 2 3 3 3 2 2 3 3 3 3 4 4 3 4 5 4 4 5 5 5 4 3 2 2 1 0 1 1 2 2
29 30 32 33 33 33 34 35 34 33 33 31 29 28 26 25 23 22 19 18 18 18 17 15 12 12 13 13 12 11 10 9 9 8 7 7 6 5 4 4 3 2 2 2 2 1 2 2 2 3 2 2 3 2 2 3 3 3 3 3 3 3 2 3 3 3 3 3 3 3 3 3 3 4 6 6 5 4 3 2 1 1 1 2 3
30 31 32 32 34 35 34 35 35 35 34 33 31 30 28 26 25 22 19 16 17 18 16 15 13 12 14 14 12 11 11 10 9 9 8 7 6 5 4 4 3 3 2 2 1 1 2 2 1 1 1 3 3 2 1 2 3 2 3 4 3 3 2 2 2 3 3 3 2 2 2 2 2 2 3 3 4 4 4 4 3 2 0 1 2
31 32 33 33 35 36 35 36 36 36 36 35 33 31 29 27 25 23 20 14 14 16 15 14 14 13 13 13 12 12 11 11 10 9 8 8 7 6 5 4 4 3 2 1 1 1 2 2 1 1 1 3 3 2 1 2 3 2 3 4 3 3 3 3 3 4 4 3 2 1 1 1 1 0 1 2 2 2 2 3 5 4 2 0 0
32 33 36 38 38 38 37 37 37 37 37 36 35 32 30 29 26 25 23 17 14 17 17 17 16 14 13 13 13 12 11 11 11 10 9 8 7 7 6 5 5 4 3 2 2 1 2 2 1 2 1 2 3 3 1 1 3 3 2 2 2 2 3 4 4 4 4 3 2 2 1 1 1 1 1 1 1 2 2 3 5 5 5 3 2
33 34 37 39 39 39 39 38 38 38 38 37 36 34 32 31 28 27 26 22 20 20 19 18 18 16 15 14 13 12 11 11 11 11 9 8 8 8 7 7 6 6 5 4 3 2 3 2 2 3 1 1 2 3 2 1 2 3 2 2 3 2 1 3 4 3 3 3 3 2 2 2 2 3 2 2 3 3 2 3 4 4 5 5 3
33 34 36 37 39 40 40 39 39 39 39 38 36 36 35 33 32 30 28 27 25 23 20 19 19 18 17 15 14 13 12 12 12 11 10 9 9 8 8 8 7 6 6 5 5 4 3 2 2 2 1 3 2 1 1 1 1 2 2 3 3 1 1 1 2 2 3 3 3 3 3 3 3 4 4 3 4 4 3 4 4 4 4 5 4
32 33 34 35 38 40 40 40 40 39 40 39 38 38 37 36 34 32 30 28 27 24 21 20 19 19 17 15 14 14 13 13 13 12 11 10 9 9 9 8 7 7 7 7 6 4 3 3 3 3 2 4 2 1 1 1 2 2 2 3 2 2 1 1 1 1 2 3 3 3 4 3 3 4 4 4 4 4 4 4 4 4 5 5 4
30 31 33 34 37 40 41 40 39 40 40 40 40 40 39 37 36 33 32 30 28 26 23 22 21 20 20 18 16 16 14 14 14 13 12 11 10 10 10 9 8 8 7 8 7 6 6 6 4 3 3 4 3 2 2 2 3 2 3 4 3 3 3 2 2 2 2 2 2 3 3 2 3 3 4 4 4 5 5 6 4 4 5 5 5
30 31 33 33 36 40 40 40 39 39 40 40 41 41 40 39 37 35 34 33 30 28 26 24 24 23 22 20 19 18 16 15 15 14 14 13 11 10 10 10 9 8 8 8 7 8 8 7 5 4 4 3 4 3 3 3 3 3 4 4 4 4 3 3 4 3 3 3 2 2 2 2 3 3 3 3 4 4 5 6 6 5 5 6 6
31 31 31 32 35 39 40 40 39 39 39 40 41 41 41 40 39 38 36 35 33 31 28 27 26 24 23 21 20 20 18 17 16 16 15 14 13 11 11 11 10 9 9 8 8 9 9 8 6 6 5 4 5 4 4 4 4 4 5 4 4 4 5 4 5 4 4 4 3 3 3 3 2 2 2 3 3 4 5 6 6 5 6 7 7
31 30 31 31 35 39 40 39 39 38 39 39 40 40 41 41 41 40 38 36 35 33 31 30 29 26 24 22 20 20 19 19 17 17 16 15 14 13 12 12 11 10 10 8 9 9 8 8 8 7 6 5 5 5 5 5 5 5 5 5 5 5 5 5 5 5 5 4 4 5 4 3 3 3 3 4 5 5 6 6 6 6 7 7 7
Wind_Direction
139 134 133 131 124 126 127 126 125 125 123 125 129 130 132 132 134 131 128 132 137 138 137 133 128 128 131 133 131 127 119 111 107 103 101 100 98 95 91 87 84 83 86 89 86 85 90 97 103 110 119 128 136 133 124 118 117 118 115 111 108 107 108 111 115 117 117 117 118 118 116 116 117 117 112 108 105 104 105 100 95 93 92 92 91
138 135 137 134 127 127 128 128 128 128 126 128 133 133 134 134 134 130 129 134 138 139 136 132 131 131 131 130 125 120 115 112 111 107 106 104 102 100 94 88 84 83 86 88 88 89 95 102 106 110 115 123 133 131 123 115 113 114 116 115 112 110 108 112 117 118 119 122 123 118 115 115 118 116 111 109 107 107 107 103 101 101 100 99 96
138 136 139 135 129 127 128 132 129 128 126 127 130 129 129 128 128 127 131 137 139 140 138 136 133 131 128 125 122 120 119 117 115 113 112 109 106 102 96 89 84 83 83 88 95 98 100 100 104 107 112 119 124 120 118 118 115 113 114 115 114 112 110 112 116 119 120 125 123 109 105 109 113 112 108 106 106 108 108 108 108 107 104 100 98
137 137 137 134 132 129 129 133 130 128 127 126 127 126 125 124 127 130 135 139 142 141 137 134 129 126 124 122 124 122 121 119 118 117 114 111 108 102 99 95 88 82 81 92 101 99 100 103 105 108 111 114 111 109 113 116 112 110 109 108 110 110 113 117 119 122 120 123 115 100 98 103 105 105 103 102 102 103 103 107 109 107 103 99 98
137 137 134 131 131 131 131 131 129 129 129 128 128 128 128 128 132 135 141 143 141 135 131 129 128 130 128 127 127 125 122 123 123 120 117 113 109 103 102 99 92 83 82 97 100 97 103 107 108 109 110 111 110 109 109 106 101 99 97 99 102 104 112 118 118 118 114 110 99 95 101 108 106 107 109 107 105 103 98 102 106 104 100 97 96
138 135 133 130 131 133 130 128 127 127 128 128 128 130 131 135 142 146 149 144 135 129 131 134 135 136 133 131 129 129 127 126 126 121 117 113 111 108 105 101 96 87 87 96 96 98 103 102 103 104 105 107 108 107 104 99 96 95 93 93 96 103 106 106 110 109 108 95 89 99 110 114 113 112 111 108 108 101 95 99 100 97 96 94 93
139 137 136 134 136 137 130 126 126 127 129 131 131 131 133 141 145 142 140 134 132 134 137 139 137 136 133 132 132 131 129 128 124 118 116 115 114 111 108 106 99 91 91 93 90 93 98 98 99 101 102 104 103 101 100 98 96 95 93 90 92 102 105 105 106 104 102 90 91 111 112 114 116 110 107 107 107 99 95 95 91 89 91 91 89
141 139 138 139 142 138 129 125 124 124 126 127 126 126 131 138 134 131 132 128 131 135 137 137 136 135 133 132 132 129 128 124 116 115 119 119 115 112 110 107 99 91 93 94 90 93 97 99 101 102 103 100 98 97 95 95 95 91 86 84 84 91 103 107 109 104 96 94 105 119 113 115 115 109 110 110 105 100 101 90 79 83 89 90 89
143 139 140 144 144 136 128 127 125 125 125 125 124 129 137 136 133 132 129 128 131 133 134 134 132 130 128 127 125 122 120 118 114 117 118 116 112 111 109 106 100 92 94 96 96 99 100 101 102 101 101 99 99 99 97 97 97 93 88 83 80 84 96 103 109 102 91 95 111 117 115 117 115 114 115 111 103 101 99 86 77 83 94 95 94
143 140 142 144 142 136 132 131 129 129 128 127 128 135 138 133 131 130 125 126 126 124 127 127 125 122 118 117 117 116 117 117 116 115 114 113 111 112 109 107 104 96 95 97 99 101 101 102 102 100 100 102 102 102 102 102 98 94 90 85 81 88 96 96 99 98 96 105 114 115 115 118 117 117 116 110 105 102 91 86 90 97 99 99 95
143 141 141 143 143 136 135 133 132 133 131 130 132 135 134 130 129 126 125 124 118 116 119 117 118 117 115 115 116 117 117 115 112 111 112 113 113 113 109 110 108 98 96 100 102 100 100 101 99 100 100 100 99 100 102 101 95 90 86 81 80 89 96 88 88 92 98 108 113 111 110 115 115 112 110 105 105 102 91 93 103 102 98 95 91
142 140 141 143 142 137 137 135 134 134 132 132 132 134 132 129 126 125 125 119 115 116 116 114 115 115 115 116 115 115 114 111 109 110 111 113 115 115 112 114 111 99 96 100 101 99 98 96 94 96 97 98 97 97 98 96 93 89 83 80 81 87 93 87 86 89 95 101 104 105 106 109 108 107 105 102 103 97 94 103 106 101 96 91 87
141 141 142 143 142 140 140 137 135 133 133 132 132 133 130 126 125 124 121 116 115 115 115 115 113 112 114 113 112 113 111 110 107 107 108 110 111 113 114 115 113 102 96 98 100 99 95 90 89 94 98 99 97 97 96 94 92 88 84 83 85 88 92 92 89 90 94 98 99 103 106 108 109 109 106 102 99 96 102 107 104 100 95 89 86
142 141 143 143 143 142 142 139 138 138 136 132 131 130 125 123 123 120 115 117 118 116 116 114 112 112 113 112 111 110 108 107 104 103 105 107 108 109 111 113 112 106 99 99 100 99 94 88 89 95 100 100 98 98 96 95 90 87 87 85 87 90 90 89 88 90 93 97 100 103 103 107 112 109 105 105 107 109 111 105 100 99 95 90 86
142 143 144 144 143 144 144 141 140 140 138 134 133 130 128 127 123 121 117 119 119 118 119 116 115 114 112 111 109 107 105 103 101 103 106 109 111 110 112 112 112 110 104 101 102 102 97 92 92 95 97 97 97 97 97 96 91 87 86 85 87 89 88 83 83 86 87 92 97 100 102 104 104 103 105 110 113 111 106 99 96 96 93 91 88
144 145 145 144 144 146 145 143 142 141 139 136 135 134 134 131 126 124 121 120 119 119 119 117 116 113 112 110 107 105 103 103 103 105 108 109 108 108 110 110 111 110 106 102 102 103 101 98 99 100 98 98 95 94 96 94 91 88 86 87 89 89 90 86 81 85 84 86 88 91 99 100 96 99 102 104 105 102 99 95 92 90 91 90 90
147 146 146 145 146 147 146 146 144 140 140 138 136 137 135 132 129 125 122 120 119 118 117 116 115 113 112 110 108 105 105 105 105 105 105 104 103 103 104 106 109 109 108 105 102 99 99 101 102 102 101 97 91 88 88 85 87 90 88 90 92 93 93 88 82 82 82 82 84 84 90 96 96 96 94 92 94 95 91 90 90 89 89 90 91
149 149 149 146 147 149 149 149 145 141 140 139 139 140 136 132 129 126 125 124 121 119 118 117 114 113 111 110 108 104 104 103 103 104 103 102 100 99 100 103 107 110 112 110 108 105 100 100 101 101 99 94 91 89 88 88 90 92 94 94 94 95 92 89 86 79 76 75 80 82 84 89 89 85 85 84 84 86 85 85 89 90 90 90 89
150 152 152 147 150 151 151 150 146 144 141 141 142 140 136 133 131 129 130 127 125 123 121 118 115 114 111 109 107 102 101 100 100 99 98 98 97 96 98 100 103 108 112 114 115 115 111 107 104 104 103 101 101 99 97 96 94 93 96 95 96 94 87 85 84 78 76 75 75 78 82 85 83 78 77 77 78 80 83 84 85 87 88 87 85
153 156 155 149 154 153 151 152 148 145 143 144 142 139 138 135 135 134 133 131 127 126 124 119 116 114 111 109 105 103 101 98 95 92 92 93 94 92 94 98 100 103 108 113 113 116 116 112 109 108 107 104 102 101 98 96 94 93 92 93 93 87 82 83 82 76 76 78 75 79 83 83 83 79 75 73 75 76 77 78 80 81 82 84 83
157 160 159 153 157 157 153 154 150 147 147 147 143 140 139 136 136 136 135 134 130 126 123 119 117 115 113 110 106 105 104 101 99 95 93 91 92 91 92 96 98 102 106 108 108 113 114 111 110 108 106 103 100 96 93 93 89 87 86 88 84 78 85 89 84 79 77 77 76 82 87 85 85 82 78 76 75 75 74 73 76 77 75 79 82
160 163 163 158 161 159 155 156 152 152 151 148 145 142 139 136 138 138 136 135 129 124 122 120 119 118 114 109 107 108 107 107 108 106 105 101 97 94 93 94 98 101 102 103 104 108 108 106 106 104 101 96 93 87 84 85 83 84 83 79 78 79 91 91 83 80 79 77 73 79 88 90 88 84 81 80 77 73 71 72 74 73 68 74 86
163 166 167 164 164 161 157 158 156 155 153 149 147 144 141 141 142 141 137 134 129 127 128 125 123 122 117 114 113 113 112 112 110 109 108 105 98 92 90 90 93 96 97 99 102 105 105 104 103 101 95 86 83 79 76 76 74 73 71 67 74 84 84 82 76 73 79 78 68 71 83 88 87 84 79 76 74 70 67 71 76 74 67 73 83
165 166 169 168 166 165 161 161 161 158 155 152 150 148 147 147 146 144 139 136 134 134 134 131 129 126 121 118 118 116 113 111 108 104 100 97 92 88 87 88 90 93 95 95 98 101 102 102 101 96 89 85 87 86 81 78 74 69 67 66 74 79 74 74 76 73 79 78 66 67 78 84 85 82 77 72 70 69 66 67 74 79 75 72 71
166 166 171 171 169 168 164 163 164 160 158 154 152 154 153 151 150 145 141 140 138 140 139 136 133 127 121 120 119 115 113 113 108 104 103 101 94 90 91 92 94 96 95 92 96 97 97 100 97 91 89 92 96 95 91 86 83 78 78 80 75 74 68 68 78 81 83 80 69 70 76 79 81 80 77 73 68 67 65 63 66 71 75 72 68
168 169 173 174 171 171 167 165 167 164 161 157 157 160 157 154 152 146 143 143 141 143 139 136 135 127 126 124 119 114 113 117 115 115 111 104 100 100 102 99 98 98 94 94 99 96 97 99 95 94 92 91 94 94 94 90 89 82 77 78 73 73 71 65 68 76 84 88 78 72 78 78 77 77 75 74 69 67 65 64 64 65 69 68 68
170 171 175 176 173 173 171 167 168 168 165 162 163 163 162 158 154 148 147 147 146 146 141 140 139 132 133 127 123 121 118 120 121 120 112 106 107 106 106 102 98 101 99 95 97 94 96 100 98 99 95 90 92 90 87 86 90 86 76 76 75 73 74 69 62 69 71 75 79 73 82 83 81 81 77 74 72 71 68 67 67 66 67 68 72
171 173 177 179 176 175 175 170 170 171 168 166 165 165 166 162 157 152 150 152 149 148 147 149 145 138 137 131 129 129 122 122 119 116 112 112 112 105 100 97 97 107 105 97 99 97 96 100 98 98 95 90 90 89 85 81 81 83 79 78 79 76 76 75 65 69 65 60 78 78 81 89 91 89 83 77 73 74 73 71 69 66 66 67 73
173 174 176 180 179 178 178 175 173 174 172 169 167 169 169 165 162 157 156 157 153 155 155 155 151 141 140 135 131 128 123 125 122 119 119 117 112 102 95 94 98 103 101 99 105 102 97 102 101 98 97 89 86 92 89 81 76 77 77 76 79 75 71 75 73 76 73 63 76 85 90 102 102 97 94 88 78 76 72 72 70 64 63 63 66
176 176 175 179 181 180 181 177 176 177 175 172 170 173 171 168 167 163 163 163 159 165 161 158 157 147 146 141 136 134 125 122 131 130 123 118 110 101 95 94 93 94 97 103 108 103 100 105 104 96 94 89 87 93 87 82 81 73 70 69 75 76 67 67 74 80 78 68 67 84 97 107 103 101 97 90 87 89 80 73 71 68 67 62 61
178 178 176 180 184 182 182 181 181 180 176 175 173 174 172 170 172 169 170 168 165 172 168 164 163 157 158 149 144 143 130 128 143 136 121 113 104 96 99 96 91 98 102 104 110 106 104 114 119 118 114 104 91 95 89 80 79 72 69 65 68 81 74 65 70 79 82 79 72 70 94 110 106 113 107 88 84 88 88 82 66 73 80 64 55
179 180 178 182 185 183 184 185 184 182 178 178 177 176 176 174 174 174 175 174 171 174 173 169 167 165 164 156 154 151 141 143 147 137 122 114 109 101 102 102 102 108 109 121 126 108 101 106 116 129 139 128 107 102 98 85 76 70 73 66 60 72 80 77 80 85 82 79 71 62 83 110 122 144 138 108 90 52 70 82 2 318 63 68 41
180 182 181 183 184 182 187 188 187 186 179 180 182 179 177 176 176 177 179 178 173 172 173 172 171 168 163 163 163 158 151 147 149 143 126 118 121 116 110 108 115 119 126 133 119 106 118 110 102 120 125 113 106 102 98 99 87 73 71 63 55 62 78 81 81 82 75 72 72 76 85 83 128 164 161 145 150 167 248 78 316 315 1 36 257
181 182 182 183 184 183 188 191 192 191 183 181 184 179 177 179 178 179 180 177 171 171 173 174 175 170 167 170 167 163 161 152 153 149 131 124 128 123 115 113 136 133 121 117 106 107 126 97 82 100 99 92 91 198 167 174 113 80 69 64 53 52 78 85 74 74 76 79 81 92 99 69 54 23 69 144 168 178 207 204 223 304 321 297 246
183 183 184 184 186 187 190 192 194 194 188 186 186 181 179 181 181 183 182 175 170 172 174 178 180 176 173 176 171 169 171 162 159 154 141 135 135 128 126 135 154 132 118 122 114 109 101 80 48 57 85 96 82 303 220 198 149 103 66 68 55 50 79 91 75 69 67 74 76 87 106 107 75 10 15 69 26 279 252 242 192 215 265 275 274
185 184 184 184 188 191 191 192 194 192 190 191 190 186 181 181 184 187 186 178 173 175 173 176 186 184 177 180 180 173 174 171 162 158 149 141 142 136 146 172 148 121 135 124 107 103 99 97 83 61 85 102 84 5 270 200 168 146 76 73 58 49 82 87 76 77 70 77 78 75 82 84 82 58 53 64 5 356 304 274 248 211 234 261 275
187 185 185 186 190 194 193 191 194 192 189 192 192 191 186 182 185 186 187 184 180 180 179 178 183 187 184 187 188 177 175 173 165 161 154 147 158 143 165 199 138 123 134 109 102 109 90 74 87 87 84 85 77 29 339 186 168 152 103 83 57 51 100 102 89 91 85 88 89 84 75 66 56 55 68 91 353 5 332 291 280 288 278 270 266
189 187 189 191 192 194 194 192 194 193 191 191 190 191 190 185 184 185 188 188 184 185 191 191 186 189 193 194 191 182 178 176 172 168 155 154 164 152 172 187 147 140 124 104 110 115 103 78 48 69 85 80 85 81 42 172 165 151 119 78 64 82 122 115 104 106 95 93 100 98 87 76 62 46 46 183 170 43 30 29 23 3 335 301 277
191 189 192 197 195 195 196 195 195 194 193 193 190 191 191 188 186 188 190 189 189 189 194 199 194 192 200 200 194 185 183 180 176 170 157 155 158 163 174 165 151 143 116 113 117 105 116 111 44 20 28 37 29 142 192 172 159 163 149 88 90 123 138 123 118 127 121 116 114 105 93 87 81 66 53 79 113 68 56 61 33 14 3 334 305
193 190 196 202 200 198 198 198 197 196 196 195 194 194 194 192 191 192 193 192 194 196 196 198 198 196 202 203 197 192 189 185 180 172 163 160 159 171 177 160 156 145 127 129 128 187 302 322 336 349 8 8 353 21 159 165 163 174 172 138 125 141 152 136 135 144 139 134 121 112 108 93 86 83 76 75 82 56 37 53 309 286 302 312 313
194 195 201 206 206 204 201 200 199 199 199 198 197 198 198 196 196 195 196 197 199 200 201 201 200 204 207 203 200 200 195 192 188 177 175 172 169 178 177 161 157 159 153 146 167 224 314 326 335 359 2 350 12 64 138 148 155 170 163 154 142 146 171 158 153 163 158 150 132 117 117 102 81 82 84 88 93 86 68 61 38 289 265 270 283
194 198 201 204 208 209 206 203 202 202 202 202 201 201 202 200 199 198 197 202 206 204 205 207 205 210 213 203 199 204 201 201 198 189 190 190 186 196 193 176 166 172 168 155 197 286 339 325 349 43 288 328 25 86 146 132 137 162 152 151 161 166 185 194 185 190 184 169 158 138 123 111 98 81 76 84 83 78 67 52 40 26 104 222 262
194 197 200 206 211 212 210 208 206 205 205 205 205 205 206 205 203 203 200 199 210 210 207 212 211 212 218 211 204 207 206 206 204 199 201 201 201 207 209 204 196 191 178 173 234 311 317 302 308 196 245 321 0 61 134 146 141 163 156 150 163 181 197 210 212 207 203 194 189 193 168 128 145 176 30 42 36 34 27 26 25 19 25 56 269
195 198 205 211 215 214 213 211 209 208 208 208 208 208 210 210 208 210 207 200 207 213 211 216 218 214 218 218 212 210 210 209 205 203 204 207 210 208 211 216 212 211 202 203 229 262 274 284 278 244 230 318 333 26 69 179 146 150 159 149 164 208 205 189 196 207 210 211 217 224 215 198 222 265 343 17 264 295 329 351 10 12 11 13 3
197 201 207 212 215 215 215 214 213 211 211 211 210 210 213 214 212 214 215 211 214 220 219 221 224 221 219 220 218 214 214 212 205 203 205 209 213 210 213 216 214 220 216 214 226 229 244 250 252 261 256 275 313 26 21 281 160 153 155 156 169 196 170 142 169 196 213 221 226 230 236 240 242 265 284 252 255 283 301 309 339 4 10 12 12
199 203 208 211 214 217 216 216 215 213 213 213 211 212 214 215 215 216 217 217 220 223 223 223 225 226 222 220 222 221 218 218 212 208 207 209 214 213 214 215 215 222 223 222 227 230 244 249 242 248 250 260 272 56 2 302 226 179 160 174 178 176 25 56 179 195 207 223 233 229 235 246 247 261 277 273 272 281 268 277 312 341 359 12 17
200 202 206 209 214 218 218 217 217 216 215 214 213 214 216 217 218 218 220 221 222 223 222 222 224 227 225 219 221 225 221 220 221 218 215 215 216 215 216 215 215 221 226 226 223 226 240 244 241 233 234 257 262 203 198 270 270 241 181 200 214 210 224 239 237 226 207 217 242 243 235 239 249 261 272 276 268 266 262 264 287 304 316 346 4
198 199 203 206 212 218 220 218 217 217 217 216 216 216 217 219 219 220 223 225 226 226 226 224 224 226 227 221 220 226 225 222 224 226 225 222 219 217 216 215 214 218 226 229 224 218 223 232 245 251 249 260 267 235 204 217 253 242 203 203 213 225 220 208 233 254 249 248 245 242 237 238 259 264 267 278 266 255 264 269 273 277 288 312 333
196 198 200 204 210 217 219 218 217 217 218 218 218 218 218 220 221 222 224 226 228 229 230 229 228 228 229 227 226 229 230 227 228 230 229 226 222 219 218 216 214 217 221 226 228 225 225 232 245 259 260 260 261 253 235 231 237 239 229 212 207 225 227 221 234 241 259 269 254 244 250 248 257 263 270 286 278 261 265 276 284 275 269 288 307
196 197 198 200 208 216 218 218 217 217 218 219 219 220 220 221 222 223 224 227 228 229 231 232 231 229 230 230 229 231 232 231 232 233 233 230 226 222 220 219 214 216 220 219 224 229 230 232 237 248 256 255 256 261 259 249 238 234 238 235 223 223 220 220 231 236 243 256 262 264 260 256 263 272 283 287 281 270 260 263 275 273 261 269 285
195 195 195 197 205 215 218 218 218 217 218 220 220 221 221 222 223 224 225 227 229 230 231 232 232 230 230 230 231 231 231 231 232 234 236 234 232 227 223 222 219 218 220 219 223 227 229 236 239 241 247 255 258 259 257 255 250 245 242 243 240 233 229 225 227 237 242 248 263 274 282 299 302 299 291 288 288 280 268 263 262 259 256 258 268